Theta_e
308 308 307 308 308 309 309 309 309 309 311 312 312 315 320 323 322 316 314 317 315 316 318 318 317 316 314 313 312 313 314 312 312 312 312 312 312 312 312 311 311 312 312 313 312 312 312 312 312 312 313 313 313 313 312 312 312 312 314 316 315 316 318 319 319 318 316 316 315 314 316 317 318 319 321 321 320 319 317 319 321 318 315 315 315 315 318
308 308 307 308 308 309 309 309 310 310 311 311 312 316 320 320 322 320 316 315 315 316 316 317 317 315 313 313 313 312 311 311 311 311 311 311 310 311 312 311 311 311 311 311 312 312 313 313 312 312 313 313 313 313 313 312 313 313 314 315 314 315 318 320 323 323 319 315 313 316 322 320 318 320 322 322 322 322 322 322 323 321 318 319 320 317 319
308 308 308 308 309 309 309 309 310 311 312 312 313 316 318 320 323 321 316 315 315 315 314 315 315 315 314 313 312 312 311 309 310 311 310 310 311 312 311 310 312 312 312 312 312 312 313 312 313 313 312 313 314 313 312 312 312 313 316 316 314 315 317 318 322 324 323 321 319 322 324 320 318 319 320 320 321 321 321 322 324 325 324 324 323 321 324
308 308 308 308 309 309 309 310 311 312 313 313 314 316 319 322 322 318 317 316 314 314 314 314 315 314 315 315 313 312 311 311 310 310 310 310 312 312 312 311 313 313 312 313 311 312 312 312 314 314 314 314 313 312 312 312 312 314 317 316 314 314 314 315 318 321 320 320 320 320 319 316 315 316 316 317 319 320 321 322 324 326 326 326 327 326 326
308 308 308 309 309 309 309 310 312 313 314 314 316 318 321 321 319 315 317 317 315 314 313 313 314 314 315 316 314 311 311 311 310 310 311 312 312 313 313 313 313 313 313 313 312 313 313 313 314 315 315 314 313 312 313 312 313 315 315 314 314 314 314 313 314 315 315 314 314 314 314 314 314 313 313 315 318 319 320 320 323 326 326 327 331 330 325
308 308 309 309 309 309 309 311 313 314 315 316 318 320 319 319 317 315 316 317 316 315 314 313 314 313 314 314 312 311 312 311 310 310 311 313 313 314 315 314 314 314 313 313 314 315 315 314 315 315 316 315 314 314 313 313 313 314 313 313 313 314 313 312 311 311 311 311 311 312 313 313 313 313 313 314 315 317 317 318 320 323 324 325 328 328 326
308 309 309 309 309 309 309 310 313 315 315 316 319 319 317 317 318 317 317 316 315 315 314 313 313 314 315 315 312 312 311 310 310 309 310 313 313 314 315 315 314 314 313 315 317 316 315 316 316 315 316 316 315 315 314 313 313 312 312 313 313 314 314 312 311 311 311 310 310 311 311 311 312 313 313 313 314 315 315 316 319 320 321 323 324 326 328
309 309 309 309 309 309 308 310 312 315 316 316 316 316 316 317 317 318 319 316 314 315 314 314 315 314 315 315 313 311 310 310 311 310 311 314 314 313 313 313 313 313 313 315 316 315 315 316 315 315 315 316 317 317 316 314 313 312 312 313 314 315 315 314 312 312 312 311 311 311 311 311 312 312 312 313 313 314 314 315 317 320 322 323 323 327 329
309 309 309 309 309 308 309 310 312 315 316 317 317 315 316 317 317 318 319 318 316 317 315 315 316 314 313 314 313 311 310 310 310 310 311 313 313 311 311 312 312 312 313 314 314 314 314 314 313 313 312 313 315 317 316 313 312 313 312 314 316 316 315 314 314 313 313 311 311 312 311 311 311 310 312 312 312 313 315 315 318 320 320 322 322 325 329
308 309 309 309 309 309 308 309 311 314 315 317 317 315 315 317 317 318 320 320 318 317 315 314 315 314 313 314 313 312 312 311 310 311 312 312 312 311 310 311 313 313 314 315 314 313 312 312 311 310 311 310 311 312 313 312 312 313 313 314 318 318 317 316 317 316 315 313 312 312 313 314 313 311 312 312 312 313 313 314 318 318 319 321 321 323 330
308 309 309 309 309 309 309 309 310 313 314 315 316 316 314 316 317 318 319 321 318 315 314 314 314 314 313 313 312 312 312 312 312 313 312 310 310 311 310 311 314 315 314 313 312 311 311 311 311 311 311 311 311 311 311 311 312 313 313 314 316 317 316 317 320 319 316 314 313 314 315 315 315 314 313 313 312 313 314 315 317 318 319 319 320 326 334
309 309 309 309 309 309 309 308 309 312 314 315 316 316 315 315 317 318 320 321 318 314 315 314 313 313 312 312 312 312 312 313 313 313 312 310 310 311 310 311 314 315 312 311 311 311 311 312 313 313 313 313 313 313 313 313 313 314 314 314 314 315 317 318 320 319 316 314 315 317 316 316 315 313 313 316 317 319 321 322 322 325 327 324 326 332 335
309 309 309 309 309 309 309 309 309 311 314 315 316 317 315 315 317 318 319 321 318 314 315 315 313 314 313 312 313 312 312 313 312 311 311 311 311 311 310 311 312 312 310 310 311 312 314 315 315 315 315 315 315 315 315 315 314 314 314 315 314 315 318 320 320 318 316 315 316 316 317 315 314 313 316 323 326 328 331 332 330 330 331 330 332 333 332
309 310 309 309 309 309 309 309 309 311 313 315 316 317 315 314 316 317 318 319 319 316 316 316 314 314 313 313 313 313 312 313 313 312 312 312 311 311 311 311 311 311 311 312 314 316 316 317 317 316 316 316 317 318 317 316 315 314 315 315 314 315 317 319 319 318 317 316 316 315 316 315 314 316 321 328 329 329 334 336 333 329 328 329 331 331 329
308 310 310 309 309 309 309 309 309 311 314 315 316 317 315 313 315 317 317 319 320 317 315 315 314 313 314 314 314 314 314 314 314 314 314 313 312 312 312 311 312 313 313 313 316 317 317 317 317 317 316 316 317 317 316 314 314 313 313 315 315 315 316 317 318 318 317 317 317 318 317 315 315 321 327 326 324 325 328 332 332 329 326 327 328 328 328
308 310 310 310 310 309 309 309 309 310 313 315 316 317 315 313 315 317 317 318 319 318 315 315 314 314 315 314 314 315 315 316 316 315 316 316 315 314 313 313 314 314 313 314 317 317 317 319 319 318 316 316 316 317 315 314 314 313 313 315 316 317 318 318 317 317 317 317 318 318 317 316 319 326 327 322 321 323 324 328 332 328 325 326 326 326 326
308 310 311 310 310 310 309 309 308 310 312 313 315 317 316 314 314 316 317 319 319 318 314 313 314 315 316 315 315 315 315 316 316 316 317 317 316 315 314 314 314 313 313 315 318 318 317 318 318 317 317 316 317 317 316 316 315 314 314 316 317 319 322 320 318 318 318 317 318 317 315 317 322 324 322 320 321 322 322 328 331 327 324 325 325 325 325
308 310 311 311 310 309 309 308 308 309 311 312 315 317 316 314 314 316 317 318 319 320 316 313 314 316 316 315 315 315 315 315 316 317 317 317 317 316 315 314 315 315 315 316 318 318 317 318 317 316 317 317 316 316 316 316 315 315 316 317 317 318 320 320 318 319 318 317 317 316 316 320 321 320 318 320 322 321 322 327 329 325 324 325 325 324 324
308 310 312 311 311 310 309 308 308 309 310 313 315 317 316 314 315 316 316 318 319 319 318 316 315 315 315 315 315 315 315 316 318 317 316 318 319 316 314 316 317 316 317 317 318 318 318 318 317 316 316 316 316 316 316 316 316 315 316 317 317 317 317 318 318 319 318 318 317 317 318 320 319 317 318 321 324 324 324 325 326 323 323 325 325 324 323
309 310 312 312 311 310 309 308 308 309 310 312 313 315 317 315 314 315 316 316 317 317 317 317 316 316 316 315 316 315 315 317 318 318 317 318 318 315 317 319 319 318 318 318 318 318 318 318 318 317 316 317 316 316 317 316 316 316 316 317 317 316 316 317 318 318 318 318 318 318 320 320 318 317 319 322 324 324 323 323 324 324 324 324 324 324 323
310 311 312 312 312 311 309 309 308 308 309 310 311 314 317 316 314 315 315 315 315 316 318 317 316 316 316 315 315 315 315 316 317 317 317 317 317 317 318 319 318 317 319 318 317 317 317 317 317 316 316 317 317 317 317 316 316 315 315 316 316 315 315 317 317 317 317 318 319 319 318 318 317 319 320 320 320 322 323 322 323 323 324 324 325 324 323
311 311 312 313 313 312 310 309 308 308 309 310 311 313 317 317 316 315 315 314 314 315 316 316 316 316 316 316 315 315 315 315 315 316 316 317 318 318 319 318 317 317 317 316 317 317 317 317 317 317 316 317 317 317 316 317 317 315 314 315 316 315 315 315 315 316 316 317 318 318 317 317 317 319 320 319 319 321 322 322 321 322 323 324 324 323 323
312 311 312 313 313 313 312 311 309 309 309 309 310 313 316 317 316 314 314 314 315 315 316 316 318 318 318 318 317 316 315 315 315 315 315 317 318 318 318 318 316 316 316 317 317 318 318 317 318 317 317 316 317 317 317 317 317 315 314 315 314 313 313 313 314 315 315 315 316 317 316 315 314 316 318 318 318 318 319 319 319 320 321 321 322 323 322
312 312 312 312 313 313 313 312 310 310 309 309 309 310 312 315 316 315 315 315 316 317 318 318 319 319 319 318 317 316 315 315 316 316 315 317 317 318 320 320 316 316 319 319 317 317 318 317 317 317 317 317 316 317 317 317 316 315 314 314 313 312 312 313 313 314 314 315 316 315 313 312 312 314 315 315 315 315 315 316 317 317 318 319 320 321 321
312 313 312 312 312 313 313 313 312 311 310 310 310 310 311 315 316 316 316 316 316 317 318 318 319 318 318 317 316 316 315 315 316 316 315 316 316 316 318 318 316 316 318 317 316 317 318 318 318 318 318 316 316 317 317 316 314 314 314 315 314 312 312 313 313 312 313 315 315 312 310 310 312 313 312 312 313 313 313 314 315 315 316 317 318 319 320
312 313 313 312 312 313 313 313 313 312 311 311 310 310 312 315 317 317 316 316 316 317 318 318 319 318 318 318 317 317 316 315 314 315 316 316 316 315 315 316 316 316 317 317 318 319 319 318 318 319 317 316 315 316 316 315 314 314 315 315 314 313 312 313 312 311 312 312 312 311 310 311 311 311 310 310 311 312 312 313 314 314 315 316 317 318 319
311 312 313 313 313 312 312 312 312 312 312 311 311 311 311 313 315 317 317 316 316 318 319 319 319 318 318 318 318 318 318 316 314 315 315 315 315 315 314 315 317 317 318 320 320 319 318 318 318 317 317 316 315 316 316 315 314 315 314 313 312 312 312 312 311 311 312 312 311 310 311 311 310 309 309 310 310 310 311 313 313 314 315 316 316 317 318
311 311 312 313 313 313 312 312 311 312 312 312 312 311 312 313 314 316 317 316 316 318 318 318 317 317 318 319 318 317 318 317 315 315 315 314 315 314 314 316 317 318 318 320 320 318 317 317 317 317 317 316 316 316 316 315 314 314 314 313 312 313 313 312 312 312 312 312 311 310 310 309 309 308 309 310 310 310 312 312 313 313 314 314 315 316 317
312 311 311 312 313 313 312 311 311 311 311 312 312 312 314 316 316 316 316 317 316 316 317 317 317 318 319 319 318 317 317 317 315 315 314 314 314 314 314 315 318 318 318 318 318 319 318 317 316 317 317 315 315 316 316 314 314 314 313 313 314 314 313 312 312 312 312 311 311 310 310 310 309 309 309 309 310 311 312 312 312 312 313 313 314 315 316
312 311 311 311 311 312 312 311 310 310 310 311 313 315 318 320 319 317 317 317 316 316 317 318 318 318 318 318 318 318 318 317 316 315 314 314 315 314 314 316 318 319 318 319 318 318 318 317 315 315 314 313 313 315 315 314 314 313 312 313 314 314 313 313 313 313 312 311 310 310 310 311 310 309 308 308 310 311 311 311 311 312 313 313 314 314 315
312 312 312 312 312 312 311 310 310 309 309 311 314 318 321 322 320 318 318 318 317 316 317 318 318 318 318 318 318 319 319 318 317 316 316 315 315 314 314 315 317 317 318 320 321 319 318 317 317 316 315 314 314 315 314 313 313 313 313 314 314 314 314 313 313 313 312 311 310 310 310 310 310 309 308 308 309 310 310 310 311 312 312 313 314 314 315
313 313 313 313 313 312 311 311 310 309 309 310 313 317 320 320 319 318 318 317 317 316 316 318 319 319 319 319 319 318 319 318 318 318 317 317 316 317 316 315 318 319 320 321 322 320 318 318 317 317 317 316 315 315 314 314 314 314 313 314 314 314 314 314 314 313 312 311 310 310 310 310 310 310 310 308 308 309 309 309 310 311 312 313 313 314 315
313 314 314 313 313 312 311 311 309 309 309 310 312 314 316 317 318 317 317 317 317 317 317 319 319 319 319 319 319 319 319 322 324 323 322 321 319 318 320 321 322 324 321 319 319 319 318 318 319 318 317 317 316 316 315 315 315 314 314 314 314 313 313 313 313 313 312 311 311 311 310 310 310 310 310 309 308 308 308 309 310 310 311 311 312 313 315
313 314 314 313 312 312 312 310 309 309 309 309 311 314 316 317 318 316 316 317 317 317 318 318 319 320 320 320 321 320 320 322 324 324 325 324 320 319 322 323 322 322 320 317 317 319 318 320 321 318 316 315 316 316 316 316 315 314 314 314 313 312 312 313 313 313 312 311 311 311 311 311 310 310 309 309 308 307 308 309 309 310 310 310 311 313 315
314 314 313 312 312 312 312 310 309 310 311 312 314 317 319 320 319 318 316 316 317 319 319 318 319 320 320 320 321 322 320 321 323 323 324 324 321 321 323 322 319 319 320 318 318 319 319 319 320 318 316 316 316 316 316 316 316 315 315 314 313 312 313 313 313 313 312 312 311 311 310 310 309 309 308 308 308 307 308 308 308 309 309 310 310 311 313
314 313 312 312 312 313 312 311 310 311 315 317 318 319 319 319 318 318 316 316 317 318 319 319 319 320 320 320 321 320 319 321 323 323 322 322 322 322 323 322 320 320 320 319 319 321 321 319 319 319 317 317 317 317 317 317 316 315 315 313 313 312 313 312 312 312 313 312 311 311 310 309 308 308 308 308 308 308 308 307 308 308 309 309 309 310 311
314 312 312 313 313 314 315 315 314 315 317 319 319 318 318 317 317 317 316 316 316 317 317 318 318 319 318 319 320 319 319 321 323 323 322 322 323 324 323 321 321 322 320 320 321 322 320 319 319 318 318 317 318 318 318 317 317 316 314 313 313 313 313 312 311 312 312 311 311 311 311 309 308 308 308 307 307 307 307 307 308 309 309 309 309 310 311
313 312 312 313 316 320 322 322 320 319 319 319 319 319 318 317 318 318 317 317 317 317 316 317 318 318 318 319 321 321 321 322 323 323 323 322 322 322 322 321 321 321 320 320 321 319 318 318 318 317 317 317 318 317 317 316 316 316 315 314 314 314 313 312 312 312 312 311 311 311 311 310 309 308 307 307 307 307 307 307 308 308 308 308 309 310 311
312 313 315 316 319 323 325 324 322 320 320 319 319 320 320 319 320 322 320 319 319 319 318 318 319 318 319 321 323 322 322 322 322 322 322 321 321 320 321 321 320 319 319 320 321 320 319 319 318 317 317 317 317 317 316 315 315 315 315 314 314 313 314 314 313 312 312 312 311 311 312 311 309 308 308 307 306 306 307 307 308 308 308 309 310 310 311
313 316 321 322 322 324 325 323 320 319 320 320 320 321 321 321 322 323 323 322 321 321 320 320 321 320 320 322 324 322 321 322 323 322 322 321 320 320 320 320 319 319 319 320 320 319 320 320 318 317 318 317 317 318 317 315 315 316 315 314 312 311 312 313 312 311 311 311 311 310 311 310 309 309 308 307 306 306 306 307 307 308 308 309 309 310 310
317 320 323 323 322 321 321 321 320 319 320 322 322 322 323 324 324 323 323 323 323 322 322 322 321 322 322 324 324 323 322 321 323 323 322 321 320 320 321 321 320 319 320 320 319 319 320 319 318 318 319 318 318 318 317 315 315 315 314 313 312 310 310 311 311 310 311 311 311 310 310 309 308 309 308 308 307 306 306 307 307 307 308 308 308 309 309
320 321 321 320 319 319 319 320 322 323 322 323 324 323 323 323 324 324 324 323 322 321 320 322 322 322 322 323 324 323 323 322 321 322 321 320 320 320 320 320 320 320 320 320 319 319 319 317 316 318 320 318 317 318 318 316 315 315 315 313 312 311 310 311 311 310 310 310 310 310 310 309 309 309 308 308 307 307 306 306 306 307 307 308 308 308 309
318 319 319 319 320 321 322 322 323 324 324 324 324 324 323 322 323 325 324 324 323 321 321 322 323 321 321 322 323 323 323 322 321 322 321 321 320 321 320 319 320 320 320 319 319 318 317 316 315 318 319 318 316 317 317 316 315 315 314 312 311 310 309 310 311 310 309 309 309 309 309 309 309 308 308 308 308 307 306 305 306 306 307 307 308 308 308
316 319 320 322 323 324 324 325 325 326 325 324 323 324 324 323 325 327 326 324 323 323 321 323 323 321 320 322 323 323 323 322 321 321 321 320 319 319 319 319 320 321 319 318 319 318 316 316 317 318 318 316 316 317 317 316 315 315 314 312 311 310 309 309 310 310 310 309 309 309 309 309 309 308 308 308 308 307 306 306 306 306 306 306 307 308 308
319 322 323 325 326 324 324 325 324 323 324 325 323 323 324 324 327 328 325 320 321 323 323 323 323 321 320 322 324 323 322 321 319 320 321 321 319 319 319 319 320 319 318 318 319 318 317 317 318 318 318 316 316 316 317 316 315 314 314 313 312 311 311 311 311 311 310 309 309 309 309 309 309 309 308 308 307 307 307 306 305 305 306 306 307 308 308
322 322 323 325 325 323 322 323 321 319 322 324 324 325 325 324 326 326 323 320 324 326 324 323 324 322 320 321 324 324 322 320 320 320 320 320 319 319 320 320 319 319 318 318 319 317 317 318 319 318 318 318 317 316 315 315 315 314 314 314 314 313 311 310 310 309 309 309 309 309 309 309 309 308 309 308 307 307 307 306 306 305 305 306 307 307 307
323 322 321 323 323 322 321 322 321 322 325 326 325 325 325 323 323 324 322 321 323 324 323 324 325 323 320 319 322 323 321 321 321 320 319 318 318 319 319 318 319 318 317 317 317 316 317 318 319 319 319 318 316 315 314 314 314 314 314 314 314 312 311 310 309 309 309 309 309 309 309 309 309 309 309 309 308 307 307 306 306 305 305 305 306 307 307
322 322 322 324 324 322 321 321 322 325 328 328 327 325 324 322 322 323 323 321 321 321 322 323 324 323 321 320 320 320 320 321 320 319 319 318 318 317 317 317 318 318 317 317 316 316 317 318 319 319 318 317 315 314 314 314 312 313 313 313 313 312 311 310 310 309 309 309 309 309 309 309 309 309 309 309 308 308 307 306 306 306 305 305 306 307 307
321 322 323 323 322 321 320 322 324 326 329 328 326 325 323 323 323 324 324 324 323 322 321 322 323 321 321 320 318 318 319 320 319 319 318 318 318 317 317 317 317 317 316 316 316 317 318 318 318 318 318 316 315 314 314 313 311 311 311 310 310 310 310 309 309 309 309 309 309 309 309 309 308 308 308 308 309 308 307 306 306 306 306 305 305 306 307
322 323 323 322 322 321 322 324 324 325 326 327 325 324 323 323 323 324 324 326 326 324 322 322 322 319 318 318 316 316 317 319 319 319 318 318 318 318 318 317 316 315 316 316 316 316 317 318 317 317 316 317 316 315 313 312 312 311 310 309 309 308 307 307 308 309 309 309 308 308 308 308 308 308 308 308 308 308 307 306 306 306 306 305 305 306 306
322 322 322 322 322 323 324 324 324 324 325 324 323 324 325 325 324 322 322 325 326 324 321 321 320 319 317 317 317 316 317 318 319 318 319 318 317 316 317 317 316 315 315 316 315 315 315 316 317 317 317 317 317 316 313 312 312 311 310 308 308 307 306 307 308 309 309 308 309 309 309 308 308 308 308 307 307 308 308 307 306 306 306 305 305 305 305
321 321 321 321 322 325 326 326 326 326 326 324 323 323 325 325 323 322 322 323 323 320 318 319 319 318 317 317 317 318 318 318 317 317 318 318 316 316 316 316 315 314 314 314 314 314 314 314 316 316 316 316 317 315 313 312 312 311 310 309 308 307 306 307 308 309 308 308 309 309 309 308 307 307 307 308 308 308 308 308 307 306 306 305 305 305 305
Wind_Speed
25 26 26 27 29 29 31 32 31 34 36 34 31 18 3 2 4 2 5 6 8 4 2 2 2 3 2 5 8 8 7 7 9 10 11 9 7 6 8 9 8 9 9 9 9 9 5 6 9 6 5 8 10 13 15 13 11 7 5 7 9 7 3 2 5 7 9 15 17 14 9 7 7 6 5 4 6 7 4 3 2 2 3 3 5 3 8
24 25 26 27 28 28 29 29 29 30 32 33 26 10 2 4 4 2 5 8 7 2 3 4 3 3 2 6 9 9 8 8 8 9 9 7 7 6 8 9 8 8 8 6 8 8 4 6 9 7 5 6 12 16 18 15 10 6 4 5 6 4 3 3 4 5 7 10 10 8 7 9 7 7 10 10 11 13 8 4 4 3 6 8 1 5 7
24 24 26 27 28 28 28 27 27 26 29 32 21 5 3 4 3 2 5 9 8 5 4 5 5 5 5 6 8 8 8 8 8 9 9 7 7 7 7 8 8 8 7 6 7 7 2 2 6 7 7 6 9 14 16 13 11 10 10 9 5 2 3 3 2 2 4 5 4 3 6 9 7 9 14 14 14 15 9 5 4 3 7 11 3 3 7
23 23 25 27 27 27 27 26 25 24 27 31 20 4 3 3 1 3 4 6 7 5 5 7 6 7 6 3 5 7 7 7 8 8 7 6 9 9 7 8 7 6 7 7 6 6 4 3 5 6 7 6 6 11 13 10 9 11 13 10 4 1 2 3 3 4 6 7 7 8 9 9 10 13 17 14 13 13 6 2 2 2 4 6 3 5 10
21 22 24 26 26 26 26 25 25 23 24 28 18 3 3 2 2 3 2 3 5 4 6 7 6 7 6 3 5 8 7 6 5 6 5 6 8 7 5 8 7 5 7 6 5 7 7 6 6 6 7 6 7 11 12 8 8 9 9 7 4 1 3 6 7 9 10 12 14 15 13 12 12 16 17 14 12 11 7 3 4 5 4 3 7 12 11
20 21 23 24 25 26 25 25 25 24 22 22 13 2 1 2 2 3 2 1 3 4 5 6 7 8 7 4 6 8 8 7 5 4 4 6 8 5 3 7 8 7 7 5 4 6 5 4 4 4 4 4 6 8 8 8 8 7 6 6 4 2 4 6 8 11 13 13 15 15 13 12 12 15 17 15 13 11 8 7 7 8 5 3 9 14 10
19 20 22 23 24 24 25 24 24 24 21 17 9 3 4 3 2 6 6 3 3 5 5 5 7 9 7 5 7 8 7 8 5 3 3 4 6 4 3 6 7 7 6 3 1 3 3 3 3 3 3 3 3 4 4 5 6 6 4 5 4 2 4 7 8 11 13 14 14 14 14 13 13 15 16 14 12 12 11 9 8 10 9 7 9 12 10
18 19 21 22 22 23 24 23 23 22 20 18 11 7 6 3 2 4 6 4 4 4 4 3 5 8 7 4 6 7 6 7 6 4 5 4 4 3 3 2 2 4 5 3 2 3 4 4 3 4 5 3 2 1 1 2 3 4 3 3 3 2 4 8 8 8 10 12 12 12 12 13 14 15 15 15 13 12 10 9 7 8 9 8 8 10 8
17 18 20 20 21 22 22 23 22 20 19 17 10 8 11 10 9 8 4 2 3 3 2 5 5 6 5 3 4 5 4 6 7 6 6 3 1 3 4 2 1 4 5 5 4 5 5 6 6 6 7 5 2 1 3 4 3 3 2 1 1 1 2 7 7 6 7 9 10 11 11 13 15 15 14 14 14 10 8 8 6 6 9 9 7 7 6
15 17 18 19 20 20 20 21 21 20 22 18 9 8 14 15 13 12 6 2 2 2 4 6 4 3 2 1 2 3 5 6 8 5 5 6 4 6 8 6 5 4 5 5 6 6 7 7 6 5 6 7 5 4 6 8 6 4 2 2 2 2 1 2 3 4 7 10 11 11 10 9 10 9 9 11 12 11 9 9 9 9 8 6 5 4 5
14 16 17 17 18 18 17 18 19 19 21 19 10 8 15 13 9 7 4 2 2 4 6 6 4 3 3 3 4 5 6 7 5 3 2 5 5 6 5 3 3 1 2 3 4 6 7 7 6 5 7 8 8 7 9 11 9 5 4 2 1 2 2 1 1 1 5 11 12 11 8 6 6 5 5 8 12 12 10 9 9 10 8 8 7 4 9
13 15 16 16 17 17 15 15 16 16 17 18 13 10 15 15 9 4 3 3 3 5 5 3 2 5 7 8 8 7 6 7 2 3 4 5 5 6 4 2 1 1 1 3 4 4 6 8 7 7 8 8 7 7 8 8 6 5 4 4 4 4 2 1 0 1 4 8 9 7 6 5 7 8 7 7 8 8 7 6 5 7 8 7 5 6 9
11 13 14 15 16 15 14 13 13 13 13 15 15 12 14 16 9 3 2 3 2 5 4 2 4 7 9 8 7 6 6 7 5 2 4 5 4 5 6 5 4 4 4 5 7 7 5 6 6 6 7 6 4 2 4 4 5 5 5 5 5 4 2 1 1 2 2 3 4 5 6 7 11 12 7 5 6 8 9 6 6 12 13 11 9 8 9
10 12 13 14 14 14 13 10 10 10 10 12 14 12 12 14 10 4 3 3 3 5 4 3 6 8 7 5 6 6 6 7 7 6 6 5 4 5 4 5 7 10 8 5 5 4 2 2 3 4 5 4 1 1 2 3 4 5 6 6 6 5 4 3 3 3 3 3 4 5 8 10 11 9 5 5 5 6 6 3 4 11 13 11 9 9 10
9 11 12 12 13 13 12 9 8 8 8 10 12 11 11 13 11 7 5 3 3 4 4 3 3 5 5 5 4 4 5 6 5 7 8 7 5 5 6 8 10 12 9 5 3 2 2 2 2 3 3 3 2 2 4 4 4 6 7 5 3 3 4 4 4 4 3 3 3 3 5 7 7 4 5 6 6 7 6 4 1 7 12 11 10 10 11
8 9 11 11 11 12 11 7 6 7 7 8 11 11 10 11 12 11 8 3 2 2 3 3 1 1 2 4 3 3 2 3 4 5 6 7 6 6 8 10 11 9 7 4 2 2 1 1 1 2 2 2 2 2 4 4 5 7 8 6 6 6 3 1 4 5 3 3 3 2 4 6 6 5 8 8 7 7 8 5 2 5 10 11 10 9 10
6 8 9 10 10 11 10 7 5 5 6 8 9 10 9 10 11 11 7 3 3 2 4 5 2 3 2 2 3 3 2 3 3 2 2 4 5 5 5 7 7 6 5 3 2 1 1 0 1 2 2 1 2 1 2 3 4 6 6 7 7 5 2 1 3 6 5 4 4 3 4 4 5 9 12 12 9 6 4 3 2 5 8 9 9 9 9
6 7 8 8 9 10 9 6 4 3 4 6 7 7 7 8 11 10 6 3 3 2 4 5 3 1 0 0 2 2 2 2 2 1 2 3 3 4 5 4 3 3 4 3 2 1 1 1 1 1 2 1 2 1 0 1 2 5 5 5 5 3 1 1 2 5 6 6 6 4 3 1 5 10 13 12 9 3 1 2 2 4 6 6 6 7 7
4 6 7 7 7 8 7 5 3 2 2 4 5 5 5 6 9 10 7 4 2 3 8 9 3 1 2 1 1 1 2 2 1 1 3 2 1 4 5 3 2 2 2 2 1 1 1 1 1 1 1 0 1 1 0 1 2 3 4 3 2 3 2 1 2 3 4 5 5 4 3 1 4 11 12 8 4 1 2 3 3 4 6 6 5 5 5
3 4 6 6 6 6 6 4 2 1 1 3 5 5 5 4 6 8 6 4 3 4 10 10 8 9 9 6 3 3 2 1 0 0 3 3 2 4 3 1 1 2 0 1 0 0 0 1 0 0 1 1 0 1 1 2 2 2 2 2 1 2 2 1 1 1 2 3 4 4 3 0 6 10 9 5 3 2 4 6 5 5 6 6 5 5 5
3 3 4 5 4 4 4 3 1 1 2 3 4 6 5 4 3 4 3 4 4 2 6 9 14 14 13 11 10 7 4 3 3 2 2 2 1 1 1 0 1 1 0 0 1 1 0 1 0 0 1 1 1 1 0 1 2 3 3 1 1 0 2 2 2 1 0 2 2 1 2 3 5 5 3 4 5 5 5 6 6 5 5 5 4 5 5
4 3 3 3 3 3 3 2 1 2 3 3 3 4 6 6 4 4 4 5 5 7 11 17 20 19 17 19 19 13 6 5 5 2 2 2 1 1 2 1 2 2 1 0 0 0 0 1 1 1 2 1 2 2 1 1 1 1 2 1 1 1 0 1 2 2 2 4 3 2 2 3 3 2 4 6 8 6 5 6 6 6 5 4 4 5 5
5 3 2 2 2 2 1 1 1 3 4 5 4 4 6 7 6 6 8 7 7 11 16 20 19 17 18 21 19 13 7 5 4 4 4 3 1 1 1 1 2 1 2 2 1 0 0 0 0 2 2 1 1 2 2 2 1 0 1 1 1 1 3 1 3 3 3 4 4 2 3 5 7 6 3 3 5 6 6 7 6 6 7 6 5 6 6
6 4 3 2 2 3 3 2 3 4 4 6 7 6 7 7 5 7 9 6 4 5 9 10 8 7 10 13 10 6 6 7 7 7 5 2 2 1 0 1 2 1 1 2 2 1 0 1 0 1 1 1 1 1 2 2 0 1 1 2 1 2 3 3 3 4 4 3 0 4 6 9 9 6 4 6 6 7 7 7 7 8 9 8 8 8 8
7 6 5 4 4 4 5 4 4 5 6 6 7 7 7 7 5 5 6 5 3 3 4 4 5 8 10 12 10 6 5 7 8 8 8 8 7 4 2 2 3 1 2 3 4 3 1 1 1 0 1 1 1 1 2 2 1 1 2 2 1 1 2 3 3 4 5 4 2 7 10 10 6 4 6 7 8 9 9 9 8 9 10 10 10 9 8
8 7 7 6 6 6 6 6 5 6 7 8 8 8 9 8 6 5 6 6 4 4 3 3 6 10 13 13 13 10 7 6 8 9 10 10 9 8 7 4 3 2 4 4 3 2 1 1 1 1 2 2 1 1 2 1 1 2 2 2 2 1 2 3 2 4 5 5 5 10 11 8 5 7 9 9 8 10 12 11 10 10 10 10 11 10 9
9 9 8 8 8 8 8 8 7 7 7 8 9 10 11 11 9 8 8 6 3 2 3 2 4 11 16 18 20 19 16 13 11 12 11 9 9 10 10 6 3 3 3 2 1 1 2 2 2 2 3 2 2 2 1 0 1 2 3 2 3 2 2 1 2 3 3 3 5 8 8 7 7 10 12 11 10 12 12 11 10 10 11 10 11 12 11
9 9 9 8 9 9 10 10 9 8 8 9 9 10 13 15 13 10 8 7 4 2 3 4 6 11 15 16 17 16 15 15 12 11 9 9 10 11 9 6 3 3 3 2 1 2 2 2 3 2 2 2 2 2 1 1 1 2 3 3 4 3 3 2 2 3 3 4 5 5 6 8 10 12 13 12 10 11 12 11 10 10 11 11 11 12 12
8 8 9 9 9 10 11 11 10 9 9 7 7 10 13 14 11 10 10 9 8 4 4 5 7 8 9 12 13 11 11 14 13 9 7 10 10 11 9 6 4 3 3 3 3 3 2 2 3 2 2 3 2 1 2 2 2 2 3 5 5 4 5 6 4 4 4 3 3 4 6 8 10 12 14 12 10 9 10 11 10 9 10 12 11 12 13
8 9 9 9 10 11 11 10 10 9 7 5 5 7 8 6 6 10 11 10 10 6 3 4 5 5 6 10 13 14 12 12 11 10 12 14 11 10 11 9 5 3 3 3 2 2 1 1 3 3 3 5 3 2 2 3 2 1 3 5 5 5 5 6 5 4 4 2 2 4 6 7 8 9 11 11 11 11 11 11 11 12 12 13 12 11 12
8 9 9 10 11 12 11 11 9 7 7 5 2 3 3 1 3 8 11 9 8 5 3 4 5 5 6 8 10 11 13 13 12 12 13 13 10 10 12 10 6 5 5 3 2 1 1 2 2 2 2 5 4 2 2 3 3 1 3 4 6 6 5 5 5 5 4 3 3 5 5 5 5 7 8 10 13 14 12 11 13 15 16 16 15 13 15
9 9 9 10 11 12 12 11 9 7 9 11 10 9 7 2 6 10 11 9 6 4 3 4 4 4 3 4 4 7 10 10 8 7 9 7 5 7 9 7 4 4 3 2 1 2 2 3 3 2 2 3 3 1 3 4 3 1 2 2 4 5 4 4 4 5 4 3 3 4 4 4 5 6 7 10 12 13 12 11 14 16 17 16 16 16 18
9 9 10 11 11 12 11 10 8 8 10 14 18 20 17 12 10 12 12 8 5 5 3 2 4 4 3 3 4 4 6 4 1 1 2 2 2 2 2 1 2 1 2 3 2 2 2 3 3 2 1 1 2 2 3 3 2 2 0 1 2 3 3 4 4 3 3 4 3 2 3 5 6 6 8 9 11 13 13 13 14 15 14 13 13 14 14
9 9 10 10 11 12 11 8 7 7 8 11 15 16 13 11 12 15 14 8 4 5 4 2 3 4 4 5 4 3 5 2 0 1 1 1 2 1 1 2 3 1 2 3 2 2 3 2 1 1 1 2 3 3 3 3 3 2 2 1 1 1 1 2 3 2 3 4 4 4 4 5 6 6 7 8 10 13 14 14 13 12 11 10 11 11 11
8 9 9 10 10 9 8 5 5 6 7 9 11 10 7 6 9 15 19 14 5 3 3 3 3 4 5 5 4 1 3 2 1 2 1 1 1 2 1 1 1 2 2 2 2 3 3 1 2 1 2 3 4 4 3 4 5 3 2 1 0 1 1 0 1 2 4 4 4 4 4 3 4 5 6 7 9 11 12 12 11 11 10 10 10 10 10
8 8 8 7 6 5 4 4 7 7 6 5 5 5 4 3 3 10 19 19 10 4 3 2 4 5 6 6 4 0 1 1 1 2 1 1 0 2 2 2 3 2 1 1 3 3 2 2 2 2 4 4 4 3 3 5 5 4 3 2 1 0 1 1 2 3 3 5 5 5 3 1 2 4 5 6 7 8 10 11 11 11 11 11 11 10 9
6 5 4 3 3 2 3 6 8 8 6 5 3 2 2 2 3 7 11 12 10 7 3 3 5 6 5 5 4 1 3 0 2 1 0 1 1 1 2 2 2 1 1 3 3 2 1 1 1 2 3 3 3 4 5 5 5 4 3 2 1 1 2 2 3 3 2 2 3 3 2 1 1 3 4 6 7 8 9 10 11 10 10 10 10 10 11
5 3 1 1 2 3 3 4 5 6 7 7 6 4 2 3 3 3 4 4 6 6 4 3 6 5 4 5 4 2 3 1 2 1 1 2 2 1 0 1 1 1 2 2 1 2 1 1 1 1 2 2 3 5 6 6 5 5 3 2 2 3 3 3 4 3 3 1 0 1 2 1 2 2 3 5 7 7 8 8 9 9 9 9 10 11 12
2 2 2 3 3 3 2 1 2 3 5 6 5 3 2 3 2 2 2 3 3 4 4 4 6 5 5 6 4 2 3 0 1 1 2 2 1 1 1 1 1 1 2 2 1 2 1 1 2 1 3 3 4 4 6 7 6 5 4 3 3 4 4 4 4 2 0 1 1 2 3 1 1 2 3 4 6 6 7 8 9 10 10 10 12 13 12
3 4 4 3 1 2 3 1 1 2 3 4 3 2 2 2 2 1 1 2 2 3 3 4 5 5 5 5 3 1 1 2 1 1 3 2 1 1 2 1 1 2 2 2 1 1 1 1 2 2 3 4 4 4 6 7 7 5 4 3 2 1 1 1 0 1 3 4 3 2 5 5 1 1 2 4 6 6 7 8 10 13 13 13 15 15 13
3 4 3 4 6 8 6 2 2 3 3 2 2 2 2 2 2 1 1 2 2 2 2 3 3 2 2 1 1 1 3 2 0 1 2 1 1 1 1 1 0 2 2 1 1 1 1 1 2 2 2 4 5 5 5 6 6 5 4 3 1 0 1 1 1 3 6 4 3 3 5 7 4 0 3 4 5 6 7 8 12 15 16 16 17 17 15
5 6 9 13 15 12 7 5 4 3 2 1 1 2 2 2 1 1 1 2 2 2 1 2 3 4 2 2 2 1 2 2 1 1 2 1 0 1 1 0 1 1 1 0 1 1 1 1 1 2 2 4 6 5 5 6 6 5 5 4 2 0 1 1 2 4 7 5 3 4 4 7 7 3 2 4 5 7 10 11 13 16 17 17 19 20 19
9 10 12 12 9 4 3 3 3 2 1 1 1 1 2 2 1 0 1 1 1 2 2 3 5 5 4 2 2 1 2 1 1 1 1 1 0 0 1 1 1 1 1 0 1 2 2 2 3 4 4 5 5 4 5 6 5 5 6 4 2 2 2 1 1 3 6 6 5 6 5 4 7 7 3 5 6 7 10 13 14 16 18 18 19 21 23
7 6 5 5 3 2 2 0 2 2 1 2 2 2 3 2 0 1 2 2 2 3 2 3 4 5 6 3 0 1 1 1 1 1 1 0 0 0 1 1 1 1 1 1 1 2 2 2 2 4 5 6 5 5 6 6 6 6 5 3 4 5 5 3 3 3 3 5 6 5 6 6 6 7 5 4 6 6 8 12 14 17 19 20 20 22 23
3 3 2 1 2 0 1 0 1 2 2 2 1 0 2 3 2 2 3 3 3 5 4 3 2 4 5 3 1 0 0 1 0 1 1 0 1 2 1 1 1 1 1 2 2 1 1 2 3 4 5 5 6 6 6 7 7 6 5 4 4 5 4 4 3 1 1 4 7 5 4 5 6 6 6 5 5 6 8 11 14 16 18 19 20 22 24
3 2 1 1 2 2 1 1 2 1 1 1 2 2 3 5 5 3 3 4 4 4 3 2 1 2 4 3 1 1 0 1 0 1 1 1 2 2 1 1 1 1 1 2 1 1 1 1 2 3 2 3 5 7 7 6 6 6 5 5 4 4 5 5 2 1 2 7 8 5 5 6 7 6 5 7 7 6 7 10 13 16 17 18 19 20 22
3 2 1 1 2 2 2 2 0 1 1 1 2 2 4 5 5 4 4 5 4 3 2 1 2 2 2 2 2 1 1 1 0 0 1 1 2 2 1 1 1 0 0 1 1 1 1 2 2 1 2 3 4 8 8 6 7 7 6 4 4 5 6 5 2 3 7 10 7 5 6 8 9 8 6 6 8 7 7 9 12 15 17 17 18 19 21
2 2 2 1 1 2 3 1 1 1 1 1 2 3 4 4 4 5 4 3 3 3 3 3 2 2 2 2 2 1 1 1 1 1 1 1 2 1 1 2 2 0 1 1 1 1 1 1 2 1 4 4 3 8 8 7 7 8 7 5 4 5 6 4 4 7 10 10 6 5 7 9 8 7 7 6 7 9 8 9 11 14 16 18 18 19 20
4 2 1 1 2 3 2 1 1 0 1 1 1 4 4 3 4 5 4 2 2 3 3 3 3 2 2 2 2 1 1 1 1 2 1 1 1 1 1 2 3 2 1 1 2 3 2 2 3 3 5 6 4 7 8 7 7 8 7 5 5 7 6 6 7 11 12 9 6 6 8 7 6 6 7 7 5 9 10 10 11 13 15 17 19 19 20
4 2 2 3 4 4 2 2 3 3 1 1 2 3 2 3 4 4 2 0 1 3 3 2 1 2 2 2 2 2 1 1 1 1 1 1 1 1 1 2 3 3 2 2 3 3 3 2 4 5 4 6 5 4 7 7 6 6 6 6 8 8 7 8 12 14 12 9 7 7 7 7 7 7 7 7 6 8 12 12 12 13 14 17 19 20 20
3 3 3 4 4 2 1 1 2 3 2 2 3 2 1 2 4 4 3 1 2 2 2 2 1 1 2 2 2 2 1 1 1 1 1 1 0 1 1 2 3 4 4 4 4 3 3 2 3 5 5 4 4 3 6 6 6 7 9 9 9 8 7 9 14 15 12 9 8 7 8 9 9 7 7 8 9 8 9 11 12 12 14 16 18 20 20
2 3 3 3 1 1 2 0 2 2 2 3 4 3 3 2 3 4 5 4 2 3 4 2 0 1 1 1 2 2 2 2 2 2 1 0 0 1 2 3 4 4 5 5 4 3 2 2 3 2 2 2 3 2 6 7 5 7 10 11 9 7 7 11 15 15 11 9 8 9 10 10 8 7 7 9 10 8 5 8 12 13 13 15 17 20 21
Wind_Direction
348 347 349 353 354 354 355 357 359 358 358 2 359 347 313 304 322 10 16 317 278 273 304 315 79 88 87 79 58 45 46 33 30 30 22 26 14 11 47 38 26 41 25 13 23 13 0 13 7 4 33 49 45 26 14 4 356 6 16 8 359 341 329 335 306 298 301 296 297 301 307 330 332 306 301 314 320 318 283 247 315 322 261 204 167 215 266
348 348 352 355 356 355 356 357 359 360 0 -0 355 343 312 328 289 271 7 346 319 335 10 351 45 79 86 96 81 64 49 30 28 34 30 24 4 12 47 39 29 38 25 22 30 16 6 10 2 353 355 31 44 28 9 358 355 1 19 17 359 339 0 13 337 324 319 309 308 315 346 2 342 313 336 348 349 351 348 349 14 23 337 337 149 193 257
349 350 354 358 358 357 357 357 357 358 357 356 354 334 295 320 261 250 19 30 25 23 17 12 28 31 40 82 83 82 78 50 32 35 40 32 11 22 45 37 33 30 16 24 27 22 50 5 351 358 352 0 34 22 3 354 347 342 354 4 359 334 340 355 352 323 301 299 311 332 347 345 322 315 331 338 350 3 13 9 8 26 349 339 317 218 289
351 352 356 358 359 358 358 356 354 354 355 353 348 311 272 313 327 337 359 32 33 18 11 28 40 22 13 28 35 49 74 65 39 28 36 40 31 39 39 22 30 28 15 20 8 2 26 15 2 8 354 350 10 0 353 350 332 332 344 346 334 321 307 295 263 250 265 277 291 305 312 312 309 317 322 326 340 350 359 20 0 330 324 314 306 348 337
353 355 357 359 0 0 359 357 353 353 355 353 346 296 239 302 7 14 354 10 20 14 11 29 44 25 17 8 4 24 45 53 45 28 37 55 43 40 36 27 28 15 12 22 4 358 5 5 13 13 351 344 346 343 343 338 324 331 339 325 305 282 277 280 273 264 266 272 281 292 299 300 306 309 308 312 321 325 325 327 320 316 312 299 322 339 341
356 356 358 360 2 3 1 358 356 357 360 357 348 307 324 351 8 17 356 314 8 14 15 39 56 40 33 28 11 21 35 41 51 35 34 67 59 36 31 41 27 4 16 28 358 356 3 4 18 11 343 337 333 332 333 332 336 346 337 319 318 295 267 274 276 275 277 278 281 287 290 295 303 301 299 307 318 319 321 323 320 317 305 288 315 321 320
357 357 359 1 4 5 3 1 0 3 11 15 11 14 14 6 3 356 347 346 30 25 20 57 76 52 34 28 19 19 23 26 32 16 4 59 71 51 29 39 20 356 12 33 350 358 0 353 7 344 307 302 303 317 323 323 342 352 336 330 343 326 284 286 282 278 280 279 277 281 287 291 294 291 291 299 308 309 310 308 306 304 292 280 293 298 297
356 358 1 3 5 7 6 6 6 9 21 29 31 33 17 4 26 348 331 354 17 357 355 34 79 54 29 21 21 15 18 16 4 5 27 40 55 45 29 43 25 353 2 359 339 0 350 331 331 309 299 286 238 236 262 259 308 329 318 335 1 8 308 307 306 293 286 284 277 273 277 280 278 280 287 293 294 292 291 291 296 297 289 287 297 296 296
357 360 3 4 7 8 9 12 12 17 27 25 18 24 13 358 3 354 315 330 345 292 353 37 61 57 33 27 32 15 7 16 9 9 20 14 347 351 345 344 57 34 11 346 340 355 339 317 310 304 305 304 260 222 245 246 267 293 262 245 14 44 324 319 320 302 292 296 289 280 280 279 270 266 269 277 282 283 283 287 288 285 292 309 319 303 299
358 2 4 5 8 9 10 14 17 24 32 24 1 13 16 2 358 358 336 268 306 325 49 47 47 64 52 20 35 7 345 16 38 26 343 345 355 346 350 12 33 16 353 342 343 334 303 294 306 309 306 304 296 288 287 284 285 286 269 235 180 158 185 326 331 307 297 298 294 296 302 290 270 261 257 261 269 274 277 279 275 273 284 302 299 289 334
0 4 6 5 8 9 11 17 19 24 30 24 1 8 20 7 344 346 342 308 352 42 61 51 28 28 33 7 4 13 359 5 52 108 293 331 341 319 333 49 81 350 325 310 295 286 288 302 318 307 291 289 290 289 287 285 286 284 281 274 237 210 214 213 154 249 291 300 305 307 299 276 273 289 282 269 269 268 267 270 276 278 271 264 273 343 25
3 5 5 6 8 10 13 20 23 24 29 27 18 13 16 6 339 317 334 330 26 64 72 72 22 1 18 18 6 7 356 333 342 160 225 279 297 299 324 36 53 345 338 300 296 315 331 331 322 301 289 282 279 286 295 300 307 305 284 262 250 246 242 240 216 226 273 297 304 293 269 261 283 293 288 284 292 308 312 307 332 351 337 318 333 28 41
6 6 6 6 6 8 13 22 26 25 28 33 30 19 11 6 354 332 337 327 19 57 59 82 51 24 25 21 356 343 337 323 327 324 282 288 320 352 4 4 347 351 354 345 354 4 350 329 321 311 300 281 256 284 336 324 308 304 297 284 266 243 199 154 215 236 260 275 266 263 275 293 293 292 307 343 352 7 0 343 23 31 17 12 25 40 38
5 6 7 6 4 5 12 23 28 25 27 30 27 19 13 13 6 346 335 331 358 34 42 45 34 29 26 9 341 335 341 342 345 340 325 322 354 15 355 329 346 357 353 358 15 7 332 331 340 323 309 301 280 49 338 289 273 283 283 276 269 248 212 179 194 206 216 243 256 277 293 296 288 290 339 15 357 7 6 324 21 27 16 11 20 31 32
4 7 7 6 4 3 8 21 26 22 25 27 25 21 14 11 5 343 321 314 336 15 51 62 29 24 13 347 341 346 345 351 351 336 333 336 356 15 347 332 356 3 347 346 25 357 346 20 346 316 329 352 357 333 318 315 320 313 295 281 286 270 233 197 195 200 193 216 252 294 291 280 273 290 8 8 346 350 343 293 313 15 6 3 11 24 28
4 8 8 5 3 1 4 20 26 16 18 25 30 30 15 8 8 351 331 322 325 350 79 107 105 52 354 320 346 26 359 347 351 339 337 341 352 9 350 339 358 12 357 355 23 354 3 82 302 296 317 5 6 311 310 323 322 315 315 338 2 348 321 208 217 221 194 193 217 220 238 256 279 340 359 347 336 344 336 301 275 355 354 356 2 14 26
3 12 11 7 3 359 3 16 25 16 12 17 29 30 13 10 12 357 336 326 317 328 82 85 35 4 17 325 353 32 15 329 345 352 316 318 335 358 348 336 353 18 14 1 0 343 338 228 240 278 285 50 79 227 279 318 315 315 332 347 347 342 15 54 241 231 219 219 230 235 238 266 336 353 339 321 320 344 340 285 275 337 339 348 359 5 19
2 14 14 8 4 1 5 16 23 17 10 12 21 21 12 13 13 2 348 333 305 314 40 46 26 344 50 291 323 356 348 310 329 339 291 287 310 331 336 349 7 18 23 12 349 338 318 266 211 265 288 88 113 161 312 10 301 316 336 338 324 320 4 111 218 231 232 227 229 248 256 298 352 332 317 312 318 336 304 267 279 305 311 328 355 2 13
358 12 12 10 7 4 5 13 20 20 14 10 10 15 23 18 9 6 358 330 307 316 320 330 355 215 268 292 314 295 269 248 230 323 304 299 324 310 321 24 29 336 39 61 7 249 256 276 140 184 267 320 106 121 93 221 260 324 336 315 307 332 338 232 212 239 242 227 233 262 251 150 345 322 319 333 342 263 246 303 281 268 298 323 346 355 8
354 9 11 11 9 7 8 16 25 349 315 340 352 4 19 6 356 9 9 334 337 314 291 309 1 1 334 330 319 295 301 298 123 154 279 296 0 328 313 60 5 302 85 109 313 100 187 284 11 170 260 301 93 134 163 246 261 290 304 307 357 349 319 298 257 266 241 219 225 243 242 32 13 351 345 5 8 301 303 311 292 283 314 328 333 340 351
340 2 10 6 2 4 12 15 11 288 272 303 344 354 1 359 355 13 11 330 328 301 277 315 342 335 313 297 289 294 312 298 293 326 301 287 26 9 313 312 263 275 137 239 306 53 176 272 331 201 262 234 180 171 187 284 268 242 250 293 63 251 283 313 339 355 319 231 216 214 281 334 11 12 326 294 300 304 306 306 305 311 321 323 328 333 337
324 340 353 352 348 356 7 2 323 256 252 272 319 333 333 343 359 7 346 310 279 264 275 294 302 296 281 276 279 284 290 283 286 313 302 281 261 152 165 183 224 227 131 57 277 127 304 333 355 269 273 249 218 243 277 265 235 272 310 314 171 180 1 273 250 271 280 261 267 307 331 320 309 258 242 274 294 304 305 303 309 315 315 320 325 319 319
310 305 309 323 323 317 318 295 266 246 246 260 272 282 304 321 341 348 331 299 270 270 274 276 280 279 273 268 266 263 262 262 253 236 238 260 286 203 163 166 229 219 107 110 145 229 222 123 265 262 269 260 243 262 267 237 204 100 355 211 185 54 29 306 260 293 301 269 271 316 344 329 312 296 286 310 319 328 331 325 323 321 317 318 314 305 308
305 296 289 287 286 282 276 257 247 244 242 250 257 266 284 294 313 333 323 299 275 289 284 271 265 271 280 280 274 254 237 232 220 212 218 236 240 230 101 141 226 251 99 154 158 126 123 185 164 280 276 242 245 251 238 227 179 93 244 242 197 51 20 323 304 333 323 278 1 28 348 321 312 317 348 353 345 344 340 328 320 317 314 314 313 309 307
305 297 285 272 266 268 270 263 248 244 246 251 254 261 273 281 301 327 316 295 286 308 309 291 276 287 298 295 279 258 243 233 213 193 190 198 209 233 278 255 228 208 143 159 157 142 175 214 168 179 231 204 210 217 206 207 167 157 213 237 174 70 352 327 325 324 292 266 345 7 335 309 304 352 0 345 339 338 330 319 313 312 310 308 309 310 308
308 300 287 277 272 267 263 261 254 249 249 251 252 253 257 265 282 298 292 288 280 267 264 269 286 309 323 316 297 289 282 249 216 200 202 203 207 231 251 249 236 202 162 152 156 168 180 180 176 211 217 194 185 207 205 191 148 175 208 202 178 219 300 316 314 300 278 270 336 353 335 310 319 349 336 325 328 327 318 311 310 308 306 307 308 307 306
307 304 297 288 281 273 266 262 258 254 251 251 253 254 252 253 260 272 281 288 292 268 260 258 298 318 322 314 299 290 283 265 223 195 203 218 215 219 222 209 195 210 186 143 123 193 186 182 197 216 219 190 175 204 228 164 138 219 238 195 161 194 260 286 299 293 279 293 340 346 328 302 307 319 316 316 321 314 306 306 311 311 310 310 306 302 301
302 303 302 297 289 280 274 267 260 258 257 256 260 265 266 265 259 249 248 255 258 280 296 288 293 302 306 302 288 272 263 260 237 199 205 230 214 200 206 209 196 203 206 190 197 211 215 221 220 216 205 180 178 199 204 163 203 245 235 176 155 181 196 181 227 265 269 298 321 327 308 291 295 306 310 312 310 303 300 304 308 306 305 304 302 302 303
295 295 296 299 296 289 283 277 270 263 257 261 278 285 283 278 258 227 220 232 236 245 292 289 279 285 299 306 299 276 249 245 243 230 240 245 214 183 187 209 215 211 225 237 237 231 232 238 242 229 174 156 167 199 189 199 230 224 187 170 165 175 181 182 204 243 259 282 306 303 289 287 294 306 309 304 299 298 301 304 303 299 298 299 298 298 298
289 290 292 295 294 292 290 286 279 267 253 257 289 287 279 270 224 205 208 218 222 227 289 303 286 293 301 295 289 281 266 254 245 236 236 237 222 192 187 194 193 200 224 242 244 243 243 236 249 245 177 157 169 226 228 239 256 195 164 165 165 171 188 195 206 229 241 246 266 274 279 287 299 308 308 307 310 311 307 302 301 299 296 295 292 289 289
283 286 289 291 290 291 291 287 283 269 243 227 238 278 287 26 154 194 206 210 212 223 268 280 276 293 289 265 254 258 261 257 251 249 248 243 230 209 199 192 184 192 208 219 215 212 224 218 234 258 190 174 193 252 271 270 268 209 137 144 162 180 195 197 201 214 217 225 263 268 268 279 301 316 321 322 322 318 310 303 302 300 297 295 293 290 289
277 282 288 291 292 291 290 286 282 263 234 219 219 237 251 216 150 173 189 199 214 235 266 277 280 287 283 272 269 267 261 253 246 258 268 267 250 223 206 190 178 178 169 157 182 197 209 214 215 228 200 170 169 238 260 251 244 199 106 131 164 173 176 182 198 210 201 202 254 279 285 292 308 321 322 320 321 320 317 312 308 304 299 296 292 287 285
273 281 288 293 295 293 290 285 276 263 249 239 240 247 251 242 209 188 182 190 230 243 233 262 283 271 270 302 298 258 245 253 269 273 279 312 348 297 253 172 61 63 133 153 193 213 202 203 207 220 224 157 156 216 247 236 192 132 137 224 153 139 159 182 189 199 202 205 217 248 282 295 305 309 311 319 327 327 323 318 314 310 305 299 295 291 289
273 282 291 297 298 293 289 285 273 264 259 254 257 264 269 256 231 211 196 194 244 258 229 228 279 270 266 290 285 205 185 201 130 164 238 1 69 26 315 24 29 349 198 184 211 237 220 201 144 92 260 222 210 228 240 203 165 167 227 240 96 95 186 177 155 172 209 215 215 225 249 274 298 308 315 328 334 330 327 327 323 320 317 310 305 304 302
277 289 296 299 299 293 288 277 251 247 254 254 257 265 268 254 232 215 203 196 202 270 240 217 254 271 271 282 289 177 165 218 189 152 222 309 86 106 72 32 257 242 216 191 226 233 221 172 98 117 211 215 214 227 218 168 161 175 198 197 351 321 290 148 173 212 205 202 216 235 246 273 316 324 324 333 336 331 331 332 328 326 326 320 312 312 311
287 300 302 305 309 306 292 248 221 223 239 243 236 237 240 238 214 205 204 204 212 254 279 253 253 262 268 277 284 114 130 277 354 69 47 307 312 128 139 189 225 231 185 214 235 225 192 129 124 185 218 217 213 206 155 138 145 157 164 178 236 162 136 168 253 254 216 196 208 226 235 256 328 326 322 331 336 331 329 332 333 331 329 322 317 316 311
294 303 312 334 333 294 244 226 217 211 209 215 233 262 250 197 154 177 195 206 218 229 244 277 263 256 266 283 289 57 89 50 306 330 289 234 241 199 155 182 217 211 198 231 229 192 137 117 151 222 241 225 180 145 128 129 139 142 147 187 224 134 132 178 232 264 266 204 196 225 244 247 315 329 333 342 343 338 336 338 337 331 326 323 320 315 307
295 292 272 297 299 274 220 200 211 215 215 232 264 282 224 180 178 185 184 193 210 206 201 245 256 250 257 263 253 119 98 176 236 242 217 214 229 244 178 189 209 212 243 250 198 123 128 158 158 224 259 221 148 138 133 129 128 130 146 192 189 154 162 196 210 244 288 314 171 238 254 277 328 334 348 355 349 343 341 337 329 327 329 321 310 308 309
277 267 248 233 245 277 292 231 229 233 228 232 249 252 198 182 209 222 183 174 200 201 194 225 243 239 240 249 253 69 69 105 215 229 247 247 254 279 274 247 215 224 251 257 165 137 188 195 155 194 233 206 171 151 136 129 129 141 167 194 191 178 184 195 200 211 248 44 81 180 176 162 333 327 349 6 359 347 341 336 330 330 331 326 321 322 320
227 235 246 226 210 309 311 297 233 233 231 220 215 225 230 211 206 208 183 196 217 204 188 212 233 225 219 237 272 329 219 209 195 235 248 254 297 269 230 203 200 229 241 245 205 179 218 189 164 199 215 196 174 153 140 134 136 147 159 176 207 202 152 155 244 65 79 63 34 74 127 143 172 309 353 16 12 356 343 341 342 340 339 340 338 329 313
229 237 260 300 320 314 300 262 203 219 241 242 219 219 236 227 207 210 248 254 251 224 192 218 256 258 223 208 333 269 239 230 219 297 263 257 304 275 245 191 208 251 251 230 167 190 193 180 193 223 205 163 148 146 140 132 133 142 150 156 185 341 54 37 347 50 77 74 12 36 112 140 155 62 10 27 28 10 353 348 349 349 350 346 337 327 321
265 288 301 306 306 297 270 225 211 224 238 256 260 253 249 241 221 218 238 253 291 310 307 313 319 317 331 44 82 199 241 231 184 240 264 260 251 273 269 251 236 251 263 213 152 183 184 180 222 238 190 151 149 152 144 133 138 146 142 138 151 52 35 349 344 55 80 84 23 20 88 138 156 155 27 30 40 29 15 5 354 350 351 346 339 340 348
274 287 295 296 291 268 206 195 208 213 219 251 273 279 268 248 172 50 269 260 293 303 321 357 348 328 325 24 98 195 232 215 162 232 272 285 349 338 279 260 241 230 234 306 194 202 200 202 215 212 179 153 153 157 145 134 132 131 126 131 172 182 129 88 26 58 84 92 68 36 41 95 138 147 108 41 40 41 29 17 3 355 353 352 352 355 359
285 272 269 269 247 170 122 170 196 176 216 252 236 253 277 278 289 318 286 281 294 301 328 19 0 316 308 327 25 210 233 47 34 287 245 212 289 275 254 269 269 212 158 218 219 209 218 227 208 178 160 157 162 159 143 133 129 128 130 153 193 186 161 128 89 74 86 94 85 58 32 47 92 124 124 67 42 42 38 26 13 3 0 1 4 5 3
286 238 210 272 289 298 72 41 218 204 237 252 233 319 316 297 271 259 272 288 308 319 333 3 351 293 296 310 324 221 25 50 11 266 255 222 253 239 220 249 279 236 222 244 233 208 236 236 178 153 159 169 162 144 133 130 129 132 144 172 191 181 152 116 99 99 123 102 93 75 39 45 66 91 114 105 70 47 46 41 27 14 9 9 8 7 5
270 250 191 258 283 269 217 234 264 259 306 358 18 6 313 290 283 289 300 303 309 318 323 315 254 268 291 300 259 190 103 103 205 281 339 333 284 263 204 211 262 259 256 274 300 5 332 310 128 134 175 193 149 128 126 130 133 140 157 175 173 144 117 106 98 15 65 92 93 70 39 47 50 50 83 111 104 70 51 52 44 32 22 17 11 8 10
262 264 233 236 267 255 230 226 231 92 65 3 339 299 281 285 291 295 295 299 308 318 312 266 224 237 269 272 242 189 133 130 212 302 25 300 277 276 233 221 263 298 332 294 296 302 311 339 65 106 247 235 147 129 133 148 156 156 158 163 153 135 125 127 128 76 77 84 83 63 51 52 43 29 38 85 106 98 70 57 55 48 38 28 19 16 18
271 267 249 234 246 255 246 216 88 106 166 262 290 280 278 288 296 291 284 295 325 331 318 306 296 273 258 252 242 215 139 140 229 234 179 227 267 286 288 276 282 34 103 318 315 286 251 220 117 174 271 266 172 146 153 167 162 151 148 155 153 139 130 127 114 98 94 89 77 65 65 59 43 28 25 47 93 105 90 68 63 61 50 40 30 24 24
270 282 272 234 259 278 286 32 44 279 176 148 266 274 277 297 310 302 293 299 325 308 291 287 296 302 301 295 280 261 118 120 235 239 227 262 285 306 310 302 314 358 39 341 318 299 269 208 157 185 260 270 223 170 166 167 155 147 151 156 140 123 120 118 108 103 102 96 85 81 82 73 51 29 19 24 73 108 103 82 71 67 59 49 42 32 28
246 261 244 233 258 281 323 22 343 315 304 160 255 277 304 325 309 300 299 302 285 288 287 286 307 327 335 324 310 322 31 66 282 280 306 314 315 332 332 314 314 322 316 300 299 302 294 240 171 177 227 268 260 187 154 147 144 140 135 122 109 104 105 107 105 103 101 96 89 90 92 82 62 39 20 17 48 102 110 97 81 73 67 60 53 45 37
226 238 236 235 249 271 44 42 307 290 300 314 306 299 297 279 281 302 329 321 253 281 324 0 4 329 325 325 324 336 0 9 327 325 342 354 336 328 313 291 289 301 310 318 327 331 316 274 225 196 199 238 252 175 138 138 143 137 125 113 106 103 100 101 103 103 99 92 86 82 75 68 60 45 27 22 30 62 102 110 99 85 76 69 63 57 49
228 257 267 254 217 99 88 179 238 239 268 296 291 277 265 268 299 332 338 327 305 330 349 2 351 297 327 353 2 349 335 318 323 338 0 48 178 268 288 297 306 315 321 324 325 319 294 272 270 253 224 262 270 177 141 137 137 129 123 119 117 115 106 103 106 106 100 91 85 79 74 75 73 58 41 33 22 19 62 111 111 100 88 79 73 67 60